| time (UTC) | temp C | wind direction | speed KPH | gust KPH | rain 1hr cm | rain 24hr cm | rain mn cm | humidity % | barometer mb |
| 20260504081547 | 11 | 194 | 3.2 | 11.3 | 0.00 | 0.00 | 0.00 | 62 | 1016.0 |
| 20260504044525 | 9 | 236 | 0.0 | 3.2 | 0.00 | 0.00 | 0.00 | 65 | 1016.5 |
| 20260504043023 | 10 | 236 | 0.0 | 6.4 | 0.00 | 0.00 | 0.00 | 61 | 1016.4 |
| 20260504041536 | 10 | 235 | 0.0 | 6.4 | 0.00 | 0.00 | 0.00 | 58 | 1016.5 |
| 20260504040022 | 10 | 236 | 1.6 | 6.4 | 0.00 | 0.00 | 0.00 | 59 | 1016.5 |
| 20260504034516 | 9 | 242 | 1.6 | 9.7 | 0.00 | 0.00 | 0.00 | 60 | 1016.4 |
| 20260504033017 | 8 | 231 | 0.0 | 4.8 | 0.00 | 0.00 | 0.00 | 65 | 1016.3 |
| 20260504031517 | 8 | 279 | 0.0 | 4.8 | 0.00 | 0.00 | 0.00 | 68 | 1016.1 |
| 20260504030016 | 7 | 294 | 0.0 | 3.2 | 0.00 | 0.00 | 0.00 | 71 | 1016.1 |
| 20260504024516 | 7 | 294 | 0.0 | 3.2 | 0.00 | 0.00 | 0.00 | 71 | 1016.1 |
| 20260504023015 | 8 | 294 | 0.0 | 3.2 | 0.00 | 0.00 | 0.00 | 70 | 1016.1 |
| 20260504021515 | 8 | 327 | 0.0 | 0.0 | 0.00 | 0.00 | 0.00 | 71 | 1016.1 |
| 20260504020021 | 8 | 327 | 0.0 | 0.0 | 0.00 | 0.00 | 0.00 | 68 | 1016.0 |
| 20260504014513 | 8 | 327 | 0.0 | 3.2 | 0.00 | 0.00 | 0.00 | 67 | 1016.0 |
| 20260504013140 | 8 | 327 | 0.0 | 3.2 | 0.00 | 0.00 | 0.00 | 66 | 1015.9 |
| 20260504011512 | 9 | 327 | 0.0 | 1.6 | 0.00 | 0.00 | 0.00 | 62 | 1015.7 |
| 20260504010012 | 10 | 327 | 0.0 | 1.6 | 0.00 | 0.00 | 0.00 | 60 | 1015.6 |
| 20260504004512 | 10 | 327 | 0.0 | 3.2 | 0.00 | 0.00 | 0.00 | 57 | 1015.6 |
| 20260504003009 | 11 | 327 | 0.0 | 1.6 | 0.00 | 0.00 | 0.00 | 53 | 1015.4 |
| 20260504001520 | 12 | 327 | 0.0 | 1.6 | 0.00 | 0.00 | 0.00 | 49 | 1015.3 |
| 20260504000009 | 13 | 327 | 0.0 | 3.2 | 0.00 | 0.00 | 0.00 | 45 | 1015.0 |
| 20260503234508 | 13 | 327 | 0.0 | 3.2 | 0.00 | 0.00 | 0.00 | 43 | 1014.9 |
| 20260503233012 | 15 | 327 | 0.0 | 3.2 | 0.00 | 0.00 | 0.00 | 39 | 1014.8 |
| 20260503231507 | 15 | 252 | 1.6 | 4.8 | 0.00 | 0.00 | 0.00 | 39 | 1014.7 |
| 20260503230028 | 15 | 273 | 3.2 | 12.9 | 0.00 | 0.00 | 0.00 | 36 | 1014.8 |
| 20260503224506 | 16 | 255 | 1.6 | 11.3 | 0.00 | 0.00 | 0.00 | 35 | 1014.8 |
| 20260503223005 | 16 | 273 | 4.8 | 12.9 | 0.00 | 0.00 | 0.00 | 34 | 1014.9 |
| 20260503221505 | 16 | 261 | 3.2 | 11.3 | 0.00 | 0.00 | 0.00 | 34 | 1014.7 |
| 20260503220004 | 16 | 252 | 3.2 | 14.5 | 0.00 | 0.00 | 0.00 | 34 | 1014.8 |
| 20260503214506 | 16 | 84 | 3.2 | 17.7 | 0.00 | 0.00 | 0.00 | 34 | 1014.7 |
| 20260503213003 | 16 | 300 | 4.8 | 16.1 | 0.00 | 0.00 | 0.00 | 34 | 1014.7 |
| 20260503211501 | 16 | 329 | 4.8 | 17.7 | 0.00 | 0.00 | 0.00 | 36 | 1014.7 |
| 20260503210100 | 16 | 259 | 6.4 | 16.1 | 0.00 | 0.00 | 0.00 | 35 | 1014.7 |
| 20260503204620 | 16 | 200 | 4.8 | 16.1 | 0.00 | 0.00 | 0.00 | 37 | 1014.8 |
| 20260503203157 | 16 | 247 | 3.2 | 27.4 | 0.00 | 0.00 | 0.00 | 37 | 1015.0 |
| 20260503201554 | 16 | 84 | 1.6 | 6.4 | 0.00 | 0.00 | 0.00 | 39 | 1015.3 |
| 20260503200054 | 16 | 261 | 3.2 | 24.1 | 0.00 | 0.00 | 0.00 | 38 | 1015.4 |
| 20260503194552 | 15 | 254 | 6.4 | 22.5 | 0.00 | 0.00 | 0.00 | 38 | 1015.8 |
| 20260503193059 | 15 | 273 | 9.7 | 19.3 | 0.00 | 0.00 | 0.00 | 37 | 1015.6 |
| 20260503191608 | 15 | 267 | 4.8 | 16.1 | 0.00 | 0.00 | 0.00 | 37 | 1016.1 |
| 20260503190051 | 15 | 221 | 1.6 | 14.5 | 0.00 | 0.00 | 0.00 | 42 | 1016.1 |
| 20260503184545 | 14 | 342 | 8.0 | 20.9 | 0.00 | 0.00 | 0.00 | 40 | 1016.3 |
| 20260503183045 | 14 | 165 | 4.8 | 29.0 | 0.00 | 0.00 | 0.00 | 40 | 1016.4 |
| 20260503181549 | 13 | 53 | 6.4 | 22.5 | 0.00 | 0.00 | 0.00 | 40 | 1016.5 |
| 20260503180045 | 13 | 260 | 6.4 | 19.3 | 0.00 | 0.00 | 0.00 | 41 | 1016.5 |
| 20260503174547 | 13 | 210 | 3.2 | 22.5 | 0.00 | 0.00 | 0.00 | 40 | 1016.7 |
| 20260503173040 | 13 | 327 | 4.8 | 17.7 | 0.00 | 0.00 | 0.00 | 38 | 1016.6 |
| 20260503171539 | 13 | 145 | 6.4 | 24.1 | 0.00 | 0.00 | 0.00 | 40 | 1016.6 |